[keps] orb06326.2l.amsat

Ray Hoad r.hoad at att.net
Wed Nov 22 06:50:33 PST 2006


SB KEPS @ AMSAT  $ORB06326.N
2Line Orbital Elements 06326.AMSAT

HR AMSAT ORBITAL ELEMENTS FOR AMATEUR SATELLITES IN NASA FORMAT
FROM WA5QGD FORT WORTH,TX November 22, 2006
Send SUBSCRIBE KEPS/UNSUBSCRIBE KEPS to majordomo at amsat.org only
BID: ORB06326.N

DECODE 2-LINE ELSETS WITH THE FOLLOWING KEY:
1 AAAAAU 00  0  0 BBBBB.BBBBBBBB  .CCCCCCCC  00000-0  00000-0 0  DDDZ
2 AAAAA EEE.EEEE FFF.FFFF GGGGGGG HHH.HHHH III.IIII JJ.JJJJJJJJKKKKKZ
KEY: A-CATALOGNUM B-EPOCHTIME C-DECAY D-ELSETNUM E-INCLINATION F-RAAN
G-ECCENTRICITY H-ARGPERIGEE I-MNANOM J-MNMOTION K-ORBITNUM Z-CHECKSUM

TO ALL RADIO AMATEURS BT

AO-07
1 07530U 74089B   06324.68701763 -.00000028  00000-0  10000-3 0 07359
2 07530 101.5480 003.5885 0011900 301.9750 058.0163 12.53571715464993
UO-11
1 14781U 84021B   06325.90464329  .00000320  00000-0  50225-4 0  2311
2 14781 098.2028 339.4572 0010005 115.7755 244.4474 14.79487944219088
RS-10/11
1 18129U 87054A   06325.76434625  .00000022  00000-0  79186-5 0  1507
2 18129 082.9276 211.5903 0012700 021.7850 338.3841 13.72780774972779
RS-15
1 23439U 94085A   06324.55699050 -.00000039  00000-0  10597-3 0 00068
2 23439 064.8210 344.3283 0165487 227.2321 131.4581 11.27551817490173
FO-29
1 24278U 96046B   06325.91236815  .00000058  00000-0  97493-4 0  3701
2 24278 098.5223 308.7008 0349779 260.6650 095.4792 13.52925729506871
SO-33
1 25509U 98061B   06324.67880400  .00000152  00000-0  19955-4 0 07981
2 25509 031.4334 324.5929 0355224 044.4942 318.3646 14.28137359421420
VO-52
1 28650U 05017B   06326.33642855  .00000012  00000-0  83204-5 0  4852
2 28650 097.8573 036.4344 0026860 204.9750 155.0120 14.81211680 83798
AO-16
1 20439U 90005D   06325.60238738  .00000033  00000-0  27459-4 0  8991
2 20439 098.1893 326.7141 0011937 084.8529 275.4026 14.31740498878841
LO-19
1 20442U 90005G   06326.44436208  .00000064  00000-0  38961-4 0  8321
2 20442 098.1829 337.0257 0012903 082.3775 277.8884 14.31982798879106
AO-27
1 22825U 93061C   06325.90028487  .00000009  00000-0  19823-4 0  5501
2 22825 098.3029 300.1473 0008613 149.5338 210.6363 14.29190646685889
IO-26
1 22826U 93061D   06325.98317985  .00000030  00000-0  27675-4 0  2420
2 22826 098.2970 301.3801 0009129 146.9702 213.2050 14.29435361685979
PO-28
1 22829U 93061G   06324.50110134  .00000023  00000-0  24555-4 0 05279
2 22829 098.2860 301.1612 0010409 127.6554 232.5566 14.30132120685988
GO-32
1 25397U 98043D   06326.17299657  .00000072  00000-0  50430-4 0  1631
2 25397 098.4467 017.1108 0001969 098.5018 261.6378 14.23115300434712
MO-46
1 26548U 00057D   06324.89360775  .00000346  00000-0  60209-4 0 06538
2 26548 064.5548 107.0201 0038163 224.9428 134.8607 14.83051963332650
NO-44
1 26931U 01043C   06325.98720491  .00000242  00000-0  12720-3 0  4544
2 26931 067.0526 321.2175 0004855 263.3478 096.7068 14.29462837268485
SO-50
1 27607U 02058C   06324.57983182  .00000231  00000-0  58769-4 0 01756
2 27607 064.5598 358.3487 0034938 078.9103 281.5969 14.71197005210439
CO-55
1 27844U 03031E   06325.59497179  .00000105  00000-0  69387-4 0  8980
2 27844 098.7210 331.7336 0009829 334.8183 025.2511 14.20472148176001
CO-57
1 27848U 03031J   06324.53273626  .00000089  00000-0  62060-4 0 08630
2 27848 098.7201 329.9631 0009681 340.9855 019.0963 14.20296722175836
AO-51
1 28375U 04025K   06326.16643135  .00000045  00000-0  26196-4 0  6817
2 28375 098.1434 010.8302 0084883 089.1253 271.9662 14.40542993125900
CO-56
1 28941U 06005C   06325.83410640  .00014797  25519-5  18067-3 0  2653
2 28941 098.1602 359.9247 0257067 282.5271 074.7313 15.30858274 41615
HO-59
1 29484U 06041F   06326.06659561  .00033682  28669-5  30465-3 0   757
2 29484 098.3142 341.7409 0263453 279.9450 077.1826 15.35293256  9138
NOAA-10
1 16969U 86073A   06326.50473160  .00000020  00000-0  26570-4 0  4359
2 16969 098.7559 338.4595 0013122 051.4543 308.7831 14.27309880 49740
NOAA-11
1 19531U 88089A   06326.27833752  .00000017  00000-0  31666-4 0  3950
2 19531 098.8228 052.9499 0011006 259.6200 100.3715 14.14826463936899
NOAA-12
1 21263U 91032A   06326.24447436  .00000058  00000-0  43259-4 0  8900
2 21263 098.7421 318.9608 0012782 352.2350 007.8643 14.25515665806767
MET-3/5
1 21655U 91056A   06326.23112157  .00000051  00000-0  10000-3 0  1889
2 21655 082.5546 149.1606 0013737 010.2979 349.8424 13.17008916734168
MET-2/21
1 22782U 93055A   06326.18622107  .00000054  00000-0  35247-4 0  6752
2 22782 082.5489 206.1108 0023821 096.0962 264.2923 13.83611385667898
OKEAN-4
1 23317U 94066A   06324.75102489  .00000275  00000-0  31320-4 0 01104
2 23317 082.5359 130.9855 0021185 216.3954 143.5778 14.82426277653178
NOAA-14
1 23455U 94089A   06326.34410955  .00000048  00000-0  49416-4 0  3878
2 23455 099.0189 026.1496 0008948 328.3407 031.7217 14.13679715613411
SICH-1
1 23657U 95046A   06326.06734989  .00000167  00000-0  18275-4 0  9148
2 23657 082.5270 270.6444 0023123 200.8175 159.2072 14.81416296605368
NOAA-15
1 25338U 98030A   06326.40386941  .00000062  00000-0  44853-4 0  7616
2 25338 098.5221 324.0290 0009785 273.8681 086.1397 14.24612387443243
RESURS
1 25394U 98043A   06326.22720036  .00000015  00000-0  25012-4 0  5082
2 25394 098.4727 023.6222 0002359 072.5689 287.5747 14.24118292434897
FENGYUN1
1 25730U 99025A   06324.60397807  .00000172  00000-0  11728-3 0 08796
2 25730 098.6408 311.3408 0015258 056.5778 303.6858 14.11818461388088
OKEAN-0
1 25860U 99039A   06326.44622064  .00000132  00000-0  27583-4 0  9081
2 25860 097.7308 333.3930 0001198 035.5180 324.6109 14.73406757395053
NOAA-16
1 26536U 00055A   06326.26565954  .00000239  00000-0  15448-3 0  1532
2 26536 099.0896 294.9129 0011051 038.2098 321.9877 14.12384859317899
NOAA-17
1 27453U 02032A   06326.35816098  .00000199  00000-0  10588-3 0  1722
2 27453 098.6071 035.3744 0011362 339.5667 020.5050 14.23829547229282
NOAA-18
1 28654U 05018A   06326.34061347  .00000029  00000-0  40237-4 0  7308
2 28654 098.8066 266.3452 0014852 131.6098 228.6357 14.11010050 77684
HUBBLE
1 20580U 90037B   06324.77849593  .00000508  00000-0  26770-4 0 07606
2 20580 028.4666 109.0266 0003522 049.9790 310.1105 15.00135239708637
UARS
1 21701U 91063B   06325.91658792  .00009769  00000-0  17176-3 0  9258
2 21701 056.9732 131.7675 0102881 149.7967 210.9083 15.45538902833670
PO-34
1 25520U 98064B   06325.93371959  .00000548  00000-0  17370-4 0  6157
2 25520 028.4602 055.7167 0005944 153.3883 206.6952 15.16848956446021
ISS
1 25544U 98067A   06326.51982752  .00015828  00000-0  93275-4 0  1161
2 25544 051.6356 091.3163 0010713 248.1038 160.6573 15.78330151458143
OO-38
1 26063U 00004C   06326.06387880  .00000026  00000-0  29124-4 0  7727
2 26063 100.2057 285.6322 0037168 023.0767 337.2075 14.35785878357325
NO-45
1 26932U 01043D   06326.20309388 -.00000014  00000-0  26732-4 0  4625
2 26932 067.0531 320.3920 0004262 239.8005 120.2673 14.29541121268553
UWE-1
1 28892U 05043C   06326.37022478  .00000173  00000-0  46200-4 0  6096
2 28892 098.1486 221.8730 0018306 040.3439 319.9116 14.59425459 57045
CO-58
1 28895U 05043F   06326.42442374  .00000164  00000-0  44176-4 0  5916
2 28895 098.1505 222.0617 0018734 040.3838 319.8741 14.59475237 56934
NCUBE2
1 28897U 05043H   06324.25970908  .00000257  00000-0  63588-4 0 01496
2 28897 098.1474 219.9080 0018260 047.9074 312.3649 14.59631991048891
/EX






More information about the Keps mailing list